Pagina principale
METAR-TAF:

METAR-TAF

Aeroporti :

Le Luc, Francia

latitudine: 43-23N, longitudine: 006-23E, altezza: 80 m

Osservazione

Il bollettino è stato emesso 36 minuti fa, alle 10:30 UTC
Vento 14 kt da est
Temperature 28°C
Umidità 22%
Pressione 1025 hPa
Visibilità 10 km o più

METAR: LFMC 191030Z AUTO 09014KT 9999 ////// 28/04 Q1025

Ora: 13:06 (11:06 UTC)


TAF: mancante

Osservazioni e previsioni meteorologiche di più di 4000 aeroporti (messaggi METAR e TAF).

Le stazioni disponibili sono rappresentate dai dischi gialli e rossi sulla carta.

Puntare il mouse per vedere il nome della stazione.

Clicca sopra per visualizzare le osservazioni e previsioni meteorologiche.

Per cambiare la mappa : fare clic sui pulsanti verdi con una croce nera per ingrandire, il pulsante verde con un trattino per diminuire, o sulla freccia verde per le mappe adiacenti.


METAR-TAF: